TimeAKDT,TemperatureF,Dew PointF,Humidity,Sea Level PressureIn,VisibilityMPH,Wind Direction,Wind SpeedMPH,Gust SpeedMPH,PrecipitationIn,Events,Conditions,WindDirDegrees,DateUTC
12:53 AM,35.1,23.0,61,30.08,9.0,SW,25.3,33.4,0.00,,Overcast,220,2013-03-27 08:53:00
1:53 AM,34.0,23.0,64,30.08,9.0,SW,26.5,34.5,0.00,Snow,Light Snow,220,2013-03-27 09:53:00
2:53 AM,34.0,21.9,61,30.10,10.0,SW,19.6,25.3,0.00,,Clear,220,2013-03-27 10:53:00
3:53 AM,34.0,23.0,64,30.10,10.0,SSW,20.7,-,N/A,,Clear,210,2013-03-27 11:53:00
4:53 AM,34.0,21.9,61,30.11,10.0,SW,18.4,-,N/A,,Overcast,220,2013-03-27 12:53:00
5:53 AM,33.1,24.1,70,30.11,10.0,SSW,23.0,28.8,N/A,,Partly Cloudy,210,2013-03-27 13:53:00
6:53 AM,33.1,24.1,70,30.11,10.0,SW,21.9,29.9,N/A,,Overcast,220,2013-03-27 14:53:00
7:53 AM,33.1,24.1,70,30.12,10.0,SSW,19.6,-,N/A,,Mostly Cloudy,210,2013-03-27 15:53:00
8:53 AM,33.1,23.0,66,30.13,10.0,SSW,16.1,23.0,N/A,,Overcast,210,2013-03-27 16:53:00
9:53 AM,34.0,23.0,64,30.13,10.0,SSW,23.0,-,N/A,,Scattered Clouds,210,2013-03-27 17:53:00
10:53 AM,36.0,24.1,62,30.14,10.0,SSW,24.2,28.8,N/A,,Partly Cloudy,210,2013-03-27 18:53:00
11:53 AM,36.0,23.0,59,30.14,10.0,SSW,24.2,31.1,N/A,,Mostly Cloudy,210,2013-03-27 19:53:00
12:53 PM,36.0,19.9,52,30.14,10.0,SSW,23.0,-,N/A,,Overcast,210,2013-03-27 20:53:00
1:53 PM,37.0,21.9,54,30.13,10.0,SSW,24.2,29.9,N/A,,Clear,210,2013-03-27 21:53:00
2:53 PM,37.0,23.0,57,30.13,10.0,SSW,25.3,31.1,N/A,,Mostly Cloudy,210,2013-03-27 22:53:00
3:53 PM,37.0,21.9,54,30.13,10.0,SW,23.0,-,N/A,,Overcast,220,2013-03-27 23:53:00
4:53 PM,37.0,21.9,54,30.13,10.0,SW,16.1,-,N/A,,Scattered Clouds,220,2013-03-28 00:53:00
5:53 PM,36.0,21.9,57,30.13,10.0,SW,19.6,-,N/A,,Clear,220,2013-03-28 01:53:00
6:53 PM,36.0,23.0,59,30.14,10.0,SW,16.1,-,N/A,,Clear,220,2013-03-28 02:53:00
7:53 PM,35.1,23.0,61,30.15,10.0,SSW,19.6,-,N/A,,Clear,210,2013-03-28 03:53:00
8:53 PM,35.1,23.0,61,30.17,10.0,SSW,9.2,-,N/A,,Clear,200,2013-03-28 04:53:00
9:53 PM,32.0,21.9,66,30.18,10.0,NNE,3.5,-,N/A,,Clear,30,2013-03-28 05:53:00
10:53 PM,30.9,21.0,67,30.19,10.0,NE,8.1,-,N/A,,Clear,40,2013-03-28 06:53:00
11:53 PM,30.0,21.9,72,30.21,10.0,Calm,Calm,-,N/A,,Mostly Cloudy,0,2013-03-28 07:53:00